Погода в Грачевке

Россия / Оренбургская область     52°55′14″N   52°52′04″E
темп.,
°C
ветер,
м/с
пор.,
м/с
влажн.,
%
обл.,
%
осадки,
мм/ч
давл.,
гПа
погр.,
м
16 мая, пн
пн1623:00+12ю3484100 0.8 100282
02:00+10зюз3697100 3.1 1002298
05:00+9ююз489660 7.7 1001225
08:00+10юз699186 0.2 1000533
11:00+10зюз61087100 0.8 1001838
14:00+14з8117093 0.9 10011492
17:00+14з596878 1.9 10021327
20:00+13зюз4875100 1.1 1002285
17 мая, вт
вт1723:00+9юз338726 1.1 100338
02:00+8ююз228933 0.0 100226
05:00+7ююз36946 0.0 1002114
08:00+9юз689040 0.0 1002393
11:00+12зюз687698 0.6 1003987
14:00+14зюз8105584 0.9 10032156
17:00+14зюз711545 1.4 10041887
20:00+12юз486896 0.8 1004293
18 мая, ср
ср1823:00+8ююз398689 0.9 1004162
02:00+7ю369099 0.1 1003129
05:00+6ююз38935 0.1 1002164
08:00+8юз6983100 0.0 1003469
11:00+8юз7883100 0.3 10031078
14:00+10зюз697896 0.6 10031157
17:00+10зюз7108067 1.9 10031196
20:00+9юз598935 1.2 1004491
19 мая, чт
чт1923:00+7зюз36945 1.3 1005113
02:00+7з479537 0.0 1006317
05:00+4сз379712 0.1 1008152
08:00+7с11795 0.0 1009230
11:00+11юз336561 0.0 1009943
14:00+10зюз7879100 0.6 1009899
17:00+9зсз368813 1.3 1008368
20:00+9з367770 0.1 1009570
20 мая, пт
пт2023:00+6юз118643 0.1 100910
02:00+6ююз228699 0.0 100811
05:00+7юв2484100 0.1 1007118
08:00+8ююв3586100 0.5 1006346
11:00+9юз5683100 1.6 10051204
14:00+9ссз657998 1.3 1005707
17:00+6ссз81291100 1.6 1007884
20:00+8ссз597994 1.2 1007962